Location: St. Louis
(38.6270°N, 90.1994°W)
Time: 01:43:18
(UTC-06:00)

Transit 2A - Pass Details

Date: 01 December 2021
Orbit: 591 x 966 km, 66.7° (Epoch: 24 January)

Event Time Altitude Azimuth Distance (km) Brightness Sun altitude
Rises 00:59:30 0° 222° (SW) 3,232 - -67.5°
Reaches altitude 10° 01:01:51 10° 227° (SW) 2,366 - -67.2°
Maximum altitude 01:07:12 53° 303° (WNW) 1,053 - -66.4°
Drops below altitude 10° 01:13:08 10° 20° (NNE) 2,610 - -65.5°
Sets 01:15:51 0° 25° (NNE) 3,596 - -65.1°
